KLGAKDXR

Guest
Details From KLGA - La Guardia
To KDXR - Kdxr Danbury Ct
Flight Number -
Tags Generated
Created
Modified
Stats Distance 40 nm / 74 km
Max Altitude 0 ft / 0 m
Waypoints 2
Social Downloads 1
Likes 0
Share VATSIM

Download

Looking for another format? Having issues loading an existing format? Contact us
Advertisement - Login to hide

Notes

Generated

Route

KLGA KDXR

ID Type Via Altitude Latitude Longitude Leg Dist Tot Dist Heading (true) Name
O KLGA APT - 0 ft / 0 m 40.78229˚ -73.87852˚ - 0 nm - -
O KDXR APT - 0 ft / 0 m 41.37641˚ -73.48334˚ 39 nm 39 nm 26° / 27° -

Altitude Profile

Advertisement - Login to hide

KLGA

Details ICAO KLGA (LGA)
Name La Guardia
Region United States
Timezone America/New_York (UTC-4.0)
Stats Elevation 22 ft / 7 m (AMSL)
Location 40.777236° -73.872610°
Runways 2
Magnetic Variation 12.967° W

METAR

KLGA 251751Z 23013G21KT 10SM BKN250 31/08 A2991 RMK AO2 SLP129 T03060083 10306 20228 56024

Decode

TAF

KLGA 251739Z 2518/2624 22015G22KT P6SM SCT200 FM252100 22018G24KT P6SM FEW250 FM260000 22013G20KT P6SM FEW250 FM260300 23009KT P6SM FEW250 TEMPO 2612/2615 5SM HZ FM261900 19010KT P6SM SCT060 BKN150

Decode

Departure Runways

ID Width Length Bearing (true) Bearing (mag) Surface Threshold Offset Overrun Length
04 151 ft / 46 m 7,002 ft / 2,134 m 32.04° 45.01° Asphalt 0 ft / 0 m 312 ft / 95 m
13 151 ft / 46 m 6,990 ft / 2,130 m 122.24° 135.21° Asphalt 0 ft / 0 m 98 ft / 30 m
22 151 ft / 46 m 7,002 ft / 2,134 m 212.05° 225.02° Asphalt 0 ft / 0 m 92 ft / 28 m
31 151 ft / 46 m 6,990 ft / 2,130 m 302.26° 315.23° Asphalt 0 ft / 0 m 361 ft / 110 m

KDXR

Details ICAO KDXR (DXR)
Name Danbury
Region United States
Timezone America/New_York (UTC-4.0)
Stats Elevation 458 ft / 140 m (AMSL)
Location 41.371685° -73.481981°
Runways 2
Magnetic Variation 13.300° W

METAR

KDXR 251753Z 24014G20KT 10SM CLR 29/11 A2991 RMK AO2 SLP126 T02890106 10289 20189 57027

Decode

TAF

Not found

Destination Runways

ID Width Length Bearing (true) Bearing (mag) Surface Threshold Offset Overrun Length
08 151 ft / 46 m 4,414 ft / 1,345 m 69.68° 82.98° Asphalt 367 ft / 112 m 0 ft / 0 m
17 98 ft / 30 m 3,138 ft / 956 m 153.16° 166.46° Asphalt 223 ft / 68 m 0 ft / 0 m
26 151 ft / 46 m 4,414 ft / 1,345 m 249.69° 262.99° Asphalt 735 ft / 224 m 0 ft / 0 m
35 98 ft / 30 m 3,138 ft / 956 m 333.17° 346.47° Asphalt 230 ft / 70 m 0 ft / 0 m

Approach Navaids

Runway Type Ident Frequency Range Bearing (true) Bearing (mag) Slope Elevation
08 Localiser IDXR 111.55 MHz 18 nm / 33 km 73.10° 86.40° - 458 ft / 140 m (AMSL)
08 DME IDXR 111.55 MHz 18 nm / 33 km - - - 453 ft / 138 m (AMSL)

Popular Alternatives